Location: Cambridge (historical)
(38.6883°N, 119.0140°W)
Time: 17:14:31
(UTC+00:00)

FENGYUN 3A - Pass Details

Date: 29 October 2020
Orbit: 824 x 835 km, 98.4° (Epoch: 23 November)

Event Time Altitude Azimuth Distance (km) Brightness Sun altitude
Rises 12:33:58 0° 12° (NNE) 3,392 7.0 -21.3°
Reaches altitude 10° 12:36:20 10° 12° (NNE) 2,454 6.2 -20.8°
Maximum altitude 12:41:48 86° 283° (WNW) 842 3.6 -19.7°
Drops below altitude 10° 12:47:13 10° 196° (SSW) 2,436 6.0 -18.7°
Sets 12:49:33 0° 196° (SSW) 3,365 6.7 -18.2°
